Tracking 19476 objects as of 17-Jan-2019
HD Live streaming from Space Station
objects crossing your sky now

LES 9

Track LES 9 now!
LES 9 is classified as:


NORAD ID: 8747
Int'l Code: 1976-023B
Perigee: 35,711.3 km
Apogee: 35,877.6 km
Inclination: 17.0 °
Period: 1,436.1 minutes
Semi major axis: 42165 km
RCS: 3.1777 m2 (large)
Launch date: March 15, 1976
Source: United States (US)
Launch site: AIR FORCE EASTERN TEST RANGE (AFETR)

Original purpose was "Air Force sponsored program in space communications"; nuclear-powered; circuits jam-resistant to operate in hostile environment.
aabbcc
Your satellite tracking list
Your tracking list is empty




NASA's NSSDC Master Catalog

Two Line Element Set (TLE):
1  8747U 76023B   19015.27218410 -.00000106  00000-0  00000+0 0  9992
2  8747  16.9758  73.4619 0019711 106.2221 289.5341  1.00269295102501
Source of the keplerian elements: AFSPC